Wind_Speed
7 9 11 11 11 11 8 8 8 10 12 14 16 20 25 31 35 39 42 45 46 48 49 49 51 54 58 62 63 65 66 64 62 62 62 62 62 62 62 61 60 59 59 60 60 57 57 56 54 54 55 54 53 52 52 52 52 51 50 49 50 51 51 49 48 48 46 45 44 44 43 41 39 40 39 35 33 33 32 32 34 35 35 35 36
6 7 9 11 12 12 12 10 10 10 11 12 14 16 20 24 29 33 37 40 43 45 46 48 49 50 52 55 57 59 62 63 61 60 60 61 61 62 62 63 63 63 62 61 60 56 55 55 55 56 57 57 55 52 51 52 53 53 54 53 51 51 52 52 50 49 49 47 46 45 44 42 40 41 41 38 34 34 33 33 35 37 37 38 38
8 7 8 9 11 13 13 12 12 12 12 12 12 13 16 19 22 25 28 32 34 36 38 40 42 45 46 48 50 53 56 58 59 58 57 58 58 58 59 60 61 62 62 61 59 56 53 53 54 55 56 57 56 54 54 54 54 54 56 57 55 53 52 53 53 51 50 49 49 47 45 45 42 41 42 41 38 36 35 35 36 37 39 40 40
11 10 10 10 10 11 12 12 13 13 14 14 13 13 14 16 17 19 21 23 25 27 30 32 34 37 40 42 44 47 50 53 54 55 55 56 56 56 57 57 58 59 59 59 58 55 53 52 52 53 54 56 57 57 58 57 56 54 54 56 58 57 54 54 55 54 52 51 52 50 48 47 44 42 42 42 40 38 37 36 37 38 40 41 42
15 14 14 13 12 12 12 11 12 12 13 13 13 13 14 15 16 16 17 18 19 20 22 24 27 30 33 37 40 43 46 49 50 52 53 53 54 54 54 55 56 57 58 58 56 54 52 51 50 50 51 53 56 58 60 59 59 58 56 55 58 61 59 56 56 56 55 54 54 54 52 50 48 45 43 42 42 40 39 38 38 39 40 42 44
18 17 17 16 16 15 14 12 11 11 11 11 11 11 11 12 14 15 15 15 16 16 17 19 21 24 27 30 34 37 41 44 47 49 50 51 51 52 52 53 54 55 57 57 56 55 53 51 51 50 49 49 52 56 59 61 62 62 60 57 57 60 61 59 58 58 58 57 57 56 55 53 51 49 47 45 44 42 40 40 40 40 41 42 44
18 18 19 18 18 18 17 16 14 12 12 11 10 10 9 9 10 11 12 13 13 14 15 16 18 19 22 25 28 31 34 37 41 44 46 48 49 50 51 52 53 54 55 57 57 57 56 54 53 52 52 50 50 52 56 60 64 64 63 59 56 58 60 60 60 59 59 59 58 58 57 55 53 52 51 50 48 46 44 42 42 40 40 42 44
18 18 18 19 19 19 18 18 17 16 15 13 12 11 10 9 8 8 8 9 9 10 11 13 14 16 18 21 23 25 28 31 33 36 39 42 44 47 48 50 51 52 54 56 57 58 58 57 56 55 55 54 53 54 54 56 62 66 66 63 58 57 59 61 61 60 60 60 60 60 59 58 56 54 53 53 52 51 48 45 44 42 41 41 43
17 17 17 18 18 18 18 18 18 18 18 17 15 14 12 11 10 9 8 7 7 7 8 9 11 13 15 17 20 22 24 26 28 30 32 35 37 40 43 45 47 49 50 52 55 57 59 60 60 59 58 58 58 58 57 56 58 62 66 67 64 61 60 61 61 60 60 62 63 63 62 61 59 57 55 54 53 52 50 47 45 43 43 42 42
15 15 16 16 17 17 17 17 17 18 17 17 16 15 14 13 12 11 10 9 9 8 8 8 9 10 12 14 16 18 21 23 25 26 28 30 32 34 37 39 41 44 46 48 51 53 56 58 61 62 62 62 62 62 61 60 59 60 62 64 66 66 64 62 62 60 60 63 66 66 65 64 62 60 58 56 55 53 52 50 48 46 46 45 44
13 13 14 14 15 15 15 15 15 15 15 15 14 14 14 13 13 12 12 11 11 10 10 9 9 9 10 11 13 15 17 19 21 23 25 27 29 31 32 35 37 39 42 44 46 49 52 55 58 61 63 64 65 65 65 64 63 62 61 62 63 64 65 66 66 64 62 61 66 69 68 66 65 63 60 59 58 56 55 55 54 54 51 49 48
11 12 12 12 13 13 13 13 13 13 12 12 11 11 11 11 11 11 11 11 11 11 10 10 10 10 10 11 12 13 15 16 18 20 21 23 25 27 30 32 34 36 38 40 43 45 48 50 53 56 59 62 64 66 67 67 66 64 64 64 64 63 63 65 67 67 64 59 60 66 69 69 68 67 64 61 60 60 59 58 57 57 55 53 52
8 9 10 11 11 11 11 11 11 10 10 9 9 8 8 8 8 8 8 9 9 9 9 9 10 10 10 11 12 13 14 15 16 17 18 20 22 24 26 28 30 33 35 37 39 41 43 45 48 50 53 56 60 63 66 68 68 67 66 65 66 66 65 64 65 66 67 65 63 64 67 69 70 69 68 66 63 63 62 61 59 58 57 55 54
5 6 7 8 9 9 9 9 8 8 8 7 7 6 6 6 6 6 5 5 6 6 6 7 7 8 9 10 11 12 13 14 15 16 18 19 20 21 23 25 27 29 31 33 35 37 39 41 43 45 47 50 53 56 60 63 66 67 68 67 66 67 68 68 68 68 68 70 70 69 69 70 71 71 71 70 68 66 65 64 63 61 59 58 56
2 3 4 5 6 6 6 6 6 6 6 5 5 5 5 5 5 4 4 4 3 3 3 4 4 5 6 7 8 9 9 11 13 15 17 18 20 21 22 24 25 26 28 30 32 34 35 37 39 41 43 45 47 49 52 55 59 62 64 67 68 68 69 71 72 73 73 73 74 75 75 74 73 73 73 74 73 71 69 67 66 64 63 62 61
1 0 2 2 3 4 4 4 4 4 4 4 4 4 4 4 5 5 4 4 4 3 2 1 1 1 3 4 4 5 6 7 8 10 12 15 17 19 21 23 24 25 27 28 30 31 33 34 36 37 39 41 43 45 47 49 52 54 57 60 63 66 68 71 73 75 76 77 78 78 78 78 77 76 76 76 76 74 73 72 70 68 67 66 66
3 2 1 1 1 2 2 3 3 4 4 4 4 4 4 4 5 5 5 6 6 6 5 5 4 3 3 3 2 2 3 3 4 5 7 10 13 15 18 20 22 24 25 26 28 29 31 33 34 36 37 38 39 41 43 45 47 49 51 53 56 59 62 65 68 71 73 75 77 78 79 79 78 78 78 78 78 77 77 76 74 73 71 70 70
5 4 3 2 2 2 2 3 3 4 5 5 5 4 4 5 5 6 6 7 7 8 8 8 8 8 8 8 8 8 7 7 7 6 7 7 9 11 14 16 18 20 22 24 25 27 28 30 32 34 35 37 38 39 40 41 43 44 46 48 50 52 55 58 61 64 67 70 73 75 77 78 79 79 79 79 79 79 79 80 79 77 76 74 73
7 6 6 5 5 4 5 5 4 5 5 5 5 5 6 6 7 8 8 8 9 9 10 11 11 12 12 12 13 13 13 13 12 12 12 11 11 11 12 14 16 17 19 21 23 24 26 28 30 32 33 34 36 37 38 40 40 41 43 44 45 47 49 51 54 57 59 63 66 70 73 76 78 80 80 81 81 80 81 82 82 81 80 78 77
10 9 8 8 7 7 7 7 7 7 6 6 6 7 7 8 9 10 10 11 11 12 12 13 14 14 15 16 17 17 17 17 17 17 17 16 16 15 15 15 15 17 18 19 20 22 23 26 27 30 32 33 34 35 36 38 38 39 40 41 43 44 46 48 50 52 54 57 59 63 66 70 74 78 81 82 83 82 82 83 84 85 84 83 82
11 11 11 10 10 10 10 9 9 9 8 8 8 9 9 10 11 12 13 14 14 15 16 16 17 17 18 19 20 20 21 21 21 21 21 21 21 20 20 19 18 18 18 18 19 20 21 23 24 26 29 31 32 33 35 35 35 38 36 38 41 41 44 46 48 50 51 53 55 58 61 64 68 72 76 79 83 84 84 85 85 86 86 86 86
12 12 12 12 11 11 11 11 11 11 11 11 11 12 12 13 14 15 16 17 17 19 19 20 20 21 21 22 23 23 23 24 24 25 25 25 25 25 24 24 23 22 21 20 19 20 20 21 22 23 26 27 29 31 32 31 33 36 35 37 39 39 42 43 45 47 49 52 53 55 57 59 63 66 69 73 77 81 84 86 87 87 87 88 88
13 13 12 13 13 12 12 12 13 13 13 13 14 14 15 16 17 18 19 20 21 21 22 23 23 24 24 25 25 26 26 26 27 27 28 28 29 29 29 29 28 27 25 23 22 21 21 21 21 22 23 24 27 27 28 29 31 33 34 37 37 39 43 40 42 45 46 49 51 53 55 56 59 61 64 68 71 75 79 83 86 88 89 90 90
14 14 13 13 14 13 13 14 14 15 16 16 17 18 18 19 20 21 22 23 24 24 25 25 26 26 27 28 28 28 28 29 29 29 30 31 31 32 33 33 33 32 30 29 27 25 24 23 22 23 23 23 24 25 26 27 28 29 32 34 34 37 41 39 41 43 44 46 48 51 53 54 56 57 60 63 67 70 73 77 81 85 89 91 92
15 15 14 14 15 15 15 16 17 18 18 19 20 22 22 23 24 25 26 26 26 27 27 28 28 28 29 30 30 30 31 31 31 32 32 33 34 35 35 36 37 37 36 34 32 30 29 28 27 26 26 26 26 26 27 27 28 28 29 30 31 34 37 38 41 42 43 45 46 47 50 52 53 56 58 59 63 66 69 72 76 80 84 88 92
17 16 16 15 16 17 17 18 19 20 21 22 24 25 26 27 27 28 29 29 29 29 30 30 30 30 31 31 32 32 33 33 33 34 34 35 35 37 37 39 39 40 40 39 37 36 34 33 32 31 31 31 31 30 31 31 31 32 32 32 33 33 34 38 39 41 43 45 46 47 49 51 53 56 56 58 61 63 66 69 73 76 79 83 88
18 18 18 17 17 19 19 20 22 23 24 25 26 27 28 29 30 30 31 31 31 32 32 32 32 32 32 32 33 34 34 35 35 35 36 36 37 38 39 40 42 42 43 43 42 41 40 39 38 38 38 38 37 37 38 38 38 40 40 38 38 37 35 37 39 41 43 44 47 50 49 51 54 56 57 60 61 62 65 69 72 75 78 80 83
19 20 20 19 19 21 22 23 25 26 26 27 28 30 31 32 33 33 33 33 33 34 34 35 34 34 34 34 35 35 36 36 37 37 37 38 38 40 41 42 43 45 46 46 46 46 45 44 44 44 44 44 44 45 45 46 47 49 49 48 47 44 42 43 43 42 43 44 48 51 50 52 56 57 59 61 61 62 65 68 71 75 78 80 83
21 22 22 22 22 24 25 26 28 29 29 30 31 33 34 34 35 35 35 35 35 36 36 36 36 36 36 36 37 37 38 38 38 39 39 40 40 41 42 44 45 46 48 49 49 49 49 49 49 49 49 49 50 51 52 52 54 57 58 58 55 52 52 53 52 49 48 48 49 51 50 53 57 57 59 61 64 67 67 67 70 74 78 81 84
23 23 24 25 26 27 28 29 30 31 32 33 34 36 36 37 37 37 37 37 37 37 37 37 37 38 38 39 39 39 40 40 41 41 41 42 42 43 44 45 47 48 50 51 52 52 52 52 52 53 53 53 54 56 57 58 60 62 64 65 63 61 61 62 62 60 59 57 57 56 56 56 57 58 59 62 65 69 70 71 70 72 76 80 85
25 24 26 27 28 29 30 31 32 33 34 35 37 38 38 38 38 38 38 39 39 39 38 39 39 39 40 40 41 42 42 42 43 44 44 44 45 46 46 47 49 50 52 53 54 55 55 55 55 56 57 58 59 60 62 63 64 67 69 70 69 69 69 70 70 69 67 66 64 63 62 62 61 61 62 63 65 67 70 74 75 75 76 79 83
27 26 27 29 29 30 30 32 33 34 35 37 38 39 39 39 39 40 40 40 40 40 40 40 40 40 41 42 43 44 45 45 46 47 47 47 48 49 50 51 52 53 54 55 56 57 57 58 58 60 61 62 63 64 66 67 69 71 73 74 74 74 75 75 75 75 73 71 69 68 67 66 66 65 66 66 67 68 70 74 77 79 80 81 82
29 28 29 31 31 31 31 32 34 35 36 38 39 40 40 40 41 41 41 41 41 41 41 41 41 41 42 44 45 46 47 47 48 49 49 50 51 52 53 54 54 55 56 57 58 59 59 60 61 62 64 65 66 67 69 71 72 74 76 78 79 79 79 79 79 78 77 75 74 72 71 71 70 69 69 69 69 71 72 74 76 79 83 86 86
28 29 31 31 31 31 32 33 35 36 37 39 40 40 41 41 41 42 42 42 42 42 42 42 42 42 43 45 47 48 48 49 50 51 52 53 54 55 56 56 57 57 58 58 59 60 61 62 63 64 66 67 68 70 72 73 76 78 80 82 82 83 83 82 80 79 79 78 77 77 76 75 74 73 72 72 72 74 76 77 79 81 85 88 90
29 30 31 32 32 33 34 35 36 37 38 40 40 40 41 41 42 43 43 43 43 43 43 43 43 44 45 47 48 49 50 51 52 53 54 56 56 57 58 59 60 60 60 61 62 63 64 64 65 66 68 69 71 73 74 76 78 81 84 85 86 85 84 82 82 81 81 80 79 79 79 78 77 76 76 75 74 75 77 79 82 84 86 88 91
32 32 33 35 35 36 36 37 38 39 40 41 41 41 41 42 44 44 44 44 45 45 45 44 45 46 47 48 49 50 51 52 54 55 56 57 58 59 60 61 62 62 63 63 64 65 66 67 68 69 70 72 74 76 78 79 82 85 87 88 88 86 84 83 83 83 82 81 81 80 79 78 78 77 77 76 75 75 76 79 82 85 88 89 91
36 35 37 38 39 39 39 39 40 41 42 43 44 43 44 44 46 47 46 46 46 46 46 46 47 48 48 49 50 51 52 54 55 56 57 59 60 61 62 63 64 64 64 65 67 68 69 70 71 72 74 75 77 79 81 84 86 89 90 89 88 87 86 85 85 84 83 82 80 79 77 77 77 77 77 76 75 75 76 78 81 85 88 90 92
39 38 39 40 42 43 42 41 42 44 44 45 46 46 46 47 48 49 48 48 48 47 47 48 48 49 49 51 51 53 54 56 57 58 59 60 62 63 64 65 66 66 67 69 70 71 72 73 75 77 78 79 81 83 86 89 91 92 91 90 89 89 88 88 87 85 83 82 81 79 76 75 76 76 76 75 75 74 74 76 79 83 86 89 92
42 41 42 43 44 45 44 43 44 45 45 46 47 47 48 49 50 50 49 49 49 49 49 49 49 50 51 52 53 55 56 57 58 60 61 62 64 65 66 67 68 69 70 72 73 74 74 76 78 80 82 84 85 87 90 93 94 94 93 92 91 91 91 90 88 87 86 86 84 81 78 76 76 75 75 74 74 73 73 74 77 80 84 87 90
44 43 44 44 45 46 45 45 46 47 47 47 48 48 49 51 52 51 50 50 50 50 50 50 50 52 52 53 55 57 58 59 60 62 64 65 66 67 68 69 70 70 72 73 74 75 77 78 81 83 86 87 89 91 93 95 97 96 95 94 94 94 94 92 90 89 89 89 86 84 81 79 77 76 75 74 73 73 72 72 74 77 80 84 87
43 44 44 45 46 47 46 47 47 48 49 49 50 50 51 52 53 52 51 51 51 51 51 51 52 53 54 55 57 59 60 62 63 65 66 67 68 69 70 70 70 71 73 75 76 78 80 81 83 86 88 90 92 94 96 97 99 98 97 97 97 98 97 95 93 92 92 90 87 85 83 80 78 77 75 74 73 71 71 71 72 74 76 80 83
42 43 44 45 46 47 47 48 48 49 50 52 52 52 52 53 53 52 51 51 51 52 52 53 54 55 56 58 60 61 63 64 66 67 67 68 70 70 70 71 71 73 75 77 79 81 82 84 86 88 90 92 94 97 99 100 100 100 99 99 100 101 100 97 95 94 94 92 89 87 84 82 80 78 76 74 73 71 69 69 69 71 73 75 79
42 43 44 45 46 47 48 49 50 51 52 54 54 54 54 54 53 51 51 51 52 53 54 55 56 58 59 61 62 63 64 66 67 68 69 70 71 71 72 73 74 75 77 79 81 83 84 86 88 90 91 94 96 99 101 102 102 102 101 101 102 102 102 100 97 96 97 93 91 89 86 83 81 79 77 75 73 71 70 68 68 68 70 72 75
41 42 44 45 46 48 48 49 51 52 54 56 57 57 57 55 53 52 52 53 53 54 55 57 59 60 62 63 64 66 67 68 69 70 71 72 73 73 74 75 76 78 79 81 83 85 87 88 90 92 94 96 98 101 103 104 104 104 104 103 103 102 103 102 98 97 98 95 92 90 87 85 82 80 77 76 74 72 71 70 68 68 69 70 72
43 44 45 46 48 48 50 51 53 55 57 58 59 58 57 55 54 53 53 54 55 56 58 59 60 61 63 64 65 67 69 70 72 72 73 74 74 75 75 76 78 79 81 83 85 87 89 90 92 94 96 98 100 103 104 106 106 106 105 105 105 104 104 103 99 97 98 96 92 90 89 86 83 80 78 77 75 73 72 72 71 70 69 69 70
47 47 48 49 50 51 52 54 55 57 59 59 59 58 56 55 54 54 56 57 58 59 60 60 62 63 65 66 68 70 71 72 73 74 75 75 76 76 77 78 80 82 84 86 88 90 92 93 95 97 99 101 103 104 106 107 107 107 107 107 107 106 105 104 101 97 96 96 93 91 89 88 84 80 78 77 76 76 75 74 74 73 72 71 71
51 51 52 52 53 53 54 55 56 58 59 59 59 59 57 56 56 57 59 61 61 61 62 63 65 66 68 69 71 72 72 73 74 75 76 77 78 79 80 82 84 86 88 89 91 93 96 98 100 102 103 105 105 106 106 107 107 108 109 109 108 108 107 106 103 99 96 95 94 93 91 88 85 83 81 79 78 77 78 77 77 76 76 74 73
53 53 53 54 54 53 54 54 56 57 58 59 60 61 59 58 58 60 61 62 63 64 65 66 67 69 70 71 71 72 72 73 74 76 77 78 80 82 84 86 88 90 92 94 96 98 100 102 104 105 106 106 107 107 106 107 107 108 110 110 110 110 110 108 106 103 99 95 93 94 93 89 85 84 84 83 82 81 80 80 80 80 79 78 77
55 54 54 54 54 53 54 55 56 57 58 59 61 62 60 59 60 60 62 63 64 65 66 66 67 68 70 70 72 72 73 75 76 78 80 81 83 85 88 90 92 94 95 97 99 101 103 105 105 106 107 107 107 107 106 106 107 108 110 111 111 111 111 111 109 107 103 99 95 94 94 91 86 84 86 85 85 85 83 82 83 84 83 82 81
57 57 56 55 55 55 55 56 57 58 59 61 63 64 63 62 62 63 64 65 66 66 67 67 68 69 71 72 73 74 76 77 79 81 83 85 87 89 91 93 95 97 99 100 101 103 104 105 106 106 107 106 106 106 106 106 107 108 109 110 111 111 112 112 112 110 107 104 100 97 96 93 86 85 88 86 85 87 87 87 87 87 87 86 85
60 60 59 58 58 58 58 59 60 60 61 63 66 67 67 67 67 67 67 68 69 70 70 71 72 73 74 75 77 78 79 81 83 85 87 89 91 92 94 96 98 100 101 102 102 104 105 105 106 106 106 106 105 106 105 106 107 107 109 110 110 112 113 114 114 113 111 107 105 101 99 97 90 87 90 87 84 86 88 89 90 91 91 90 89
Wind_Direction
121 137 154 166 165 163 176 201 216 219 217 215 215 217 219 221 223 224 226 228 229 231 232 234 234 233 233 235 236 236 237 239 239 240 242 244 245 248 250 250 249 250 253 254 252 250 247 244 240 238 236 237 237 237 238 240 241 243 244 243 242 243 242 241 240 242 244 245 248 250 253 255 253 250 252 255 251 244 242 239 237 238 238 239 239
109 125 142 152 153 156 166 186 204 212 214 214 215 216 218 221 224 226 228 229 231 233 234 235 236 236 236 237 238 238 238 238 239 241 242 244 246 248 249 249 249 249 250 253 254 252 249 244 239 238 238 238 237 237 239 240 243 247 248 246 243 242 241 241 240 241 243 245 248 249 250 251 250 248 248 252 252 247 245 242 239 237 238 239 239
114 113 121 133 143 149 156 170 185 193 196 199 203 208 214 218 222 224 226 228 230 232 233 234 235 236 237 237 238 239 239 239 240 241 242 244 245 246 248 248 248 249 248 250 253 252 250 247 242 240 240 240 239 236 237 239 241 245 248 248 246 244 242 242 241 240 242 245 248 250 250 249 249 247 246 248 250 248 246 245 242 239 237 238 239
118 115 113 115 126 138 146 158 172 180 184 184 187 193 202 209 215 219 223 225 227 229 230 231 232 234 235 236 236 237 238 239 240 241 242 242 243 244 245 247 247 248 247 248 251 253 254 252 248 245 244 242 241 239 238 239 240 243 246 248 247 246 245 245 244 242 241 244 247 250 250 249 248 248 246 246 246 246 245 245 243 241 239 238 239
117 117 116 115 118 124 134 148 160 169 174 175 177 183 190 197 203 208 214 218 222 225 227 228 229 230 231 232 233 233 235 237 238 239 240 241 241 242 243 244 246 247 247 248 250 252 255 257 255 253 251 248 245 243 241 241 241 243 246 247 245 244 245 246 246 244 243 244 247 250 250 249 248 248 247 246 246 245 244 244 243 241 241 240 240
116 117 118 120 120 121 126 135 147 155 160 162 166 173 181 188 193 198 202 207 211 216 221 224 226 227 227 228 230 231 232 234 236 238 239 240 241 242 242 242 244 245 247 249 250 251 252 255 256 256 254 252 250 247 243 241 241 244 246 248 244 241 243 244 245 245 244 244 247 250 250 249 247 247 247 248 248 247 246 244 242 242 242 241 241
112 115 118 121 122 123 125 128 134 139 143 147 151 158 166 176 184 190 194 198 201 205 210 216 221 224 226 227 228 229 231 233 235 238 239 241 242 243 243 243 243 244 245 248 250 251 251 251 252 254 253 251 251 250 246 242 240 242 245 247 244 240 241 242 243 244 245 244 246 248 249 249 247 246 246 248 249 251 252 247 242 243 244 243 243
109 111 114 117 119 121 123 126 129 131 133 135 140 146 152 159 166 173 181 188 193 198 204 210 216 220 223 226 228 229 231 233 235 237 239 241 242 244 244 245 244 244 244 246 247 249 251 251 250 250 252 252 250 250 249 246 242 240 242 244 244 242 240 240 241 242 244 244 245 246 247 249 249 247 245 246 248 250 253 251 244 244 245 245 245
109 109 110 110 112 114 118 122 125 127 128 130 133 138 143 147 153 156 160 168 176 184 194 203 211 217 222 224 227 229 231 233 235 237 239 241 243 244 245 246 246 246 246 246 247 247 248 250 250 249 249 251 252 252 250 249 246 243 242 244 244 244 241 240 240 241 242 243 244 245 246 247 248 248 246 244 245 247 249 249 246 245 246 246 245
111 110 109 109 109 110 113 116 119 121 122 124 128 133 137 141 144 147 150 154 160 166 176 189 203 213 220 224 227 230 232 233 235 237 239 241 243 244 246 247 248 248 249 248 248 249 248 248 250 250 249 250 251 253 252 251 249 248 247 246 246 246 244 241 240 242 245 245 242 242 245 246 247 247 247 246 244 244 245 245 244 245 248 247 245
113 112 112 112 113 113 113 114 114 114 114 116 121 126 131 135 138 140 144 147 152 157 165 175 188 202 213 222 227 231 233 235 237 239 240 242 243 245 246 247 248 249 249 250 250 250 250 250 250 251 251 251 250 252 253 252 251 249 250 250 250 249 246 244 243 244 248 248 243 240 242 244 245 246 246 247 246 244 244 245 245 246 247 248 247
116 116 117 116 116 116 115 114 112 110 109 110 112 117 122 127 131 134 138 142 147 152 158 167 178 190 203 214 224 231 235 238 240 242 243 245 246 247 248 248 249 249 250 250 251 251 251 252 252 251 252 252 252 251 252 253 253 251 250 250 251 251 250 247 246 246 247 248 244 241 242 243 244 244 244 245 246 246 245 246 247 248 247 246 246
117 119 122 122 120 118 115 112 109 107 105 105 105 106 110 114 118 122 127 133 139 145 151 159 169 180 192 203 215 224 231 237 240 244 246 248 249 250 251 251 251 251 252 251 252 252 252 253 253 253 253 253 253 253 252 253 254 254 253 251 250 250 251 250 250 249 248 248 247 245 244 243 244 244 243 243 245 246 246 246 247 247 247 245 244
112 119 123 125 122 118 114 109 106 104 102 100 98 96 96 97 100 102 107 113 122 130 138 146 156 167 179 189 201 211 220 228 233 238 242 245 248 250 252 253 254 255 255 255 255 254 253 253 252 253 253 253 254 254 254 254 254 255 255 254 253 251 250 250 250 250 250 250 251 250 248 246 245 244 244 243 243 245 246 246 246 246 246 245 244
96 112 119 119 117 111 104 100 97 96 95 94 90 87 84 81 79 76 75 78 88 101 114 131 144 156 165 174 184 195 206 216 225 231 235 239 241 244 247 249 251 253 255 256 257 257 256 255 254 253 252 252 253 253 254 254 254 255 255 255 255 254 252 251 250 250 251 251 252 252 252 251 249 247 246 245 244 244 245 246 246 246 245 245 245
316 74 99 96 92 86 81 76 72 70 69 69 70 70 68 63 59 54 49 45 42 43 44 51 99 160 170 176 178 184 193 203 214 222 228 232 234 237 239 242 244 246 249 250 252 255 256 257 257 256 254 253 252 251 251 252 253 253 254 254 254 255 255 254 253 252 252 252 252 252 253 253 252 251 249 247 246 245 245 246 246 246 245 245 245
280 282 305 27 47 43 34 33 29 27 24 25 30 35 40 40 40 37 32 28 21 16 8 358 347 332 315 296 282 267 250 238 232 230 232 230 231 232 233 235 237 239 241 243 245 247 249 251 253 255 255 255 255 253 252 251 251 251 252 252 252 253 253 254 254 254 254 254 254 253 253 253 253 252 251 250 248 247 247 246 246 246 246 246 245
276 275 275 284 299 317 326 337 351 357 0 359 3 4 9 12 11 11 10 10 7 3 357 350 344 336 328 321 315 312 310 307 303 294 281 264 249 240 236 234 233 235 236 237 239 240 242 243 246 248 250 252 253 254 255 255 254 253 253 253 253 253 253 252 253 253 253 254 254 254 253 253 253 252 251 250 249 249 249 248 247 246 246 246 246
276 273 271 270 273 277 286 296 308 323 335 340 342 345 346 346 346 346 346 345 345 345 343 341 337 333 330 325 321 318 316 315 313 311 307 300 289 273 260 251 244 240 237 237 236 237 237 237 239 240 243 245 247 250 252 254 255 256 256 257 257 257 257 256 255 254 253 253 253 253 253 253 253 252 252 250 249 249 250 250 249 247 246 245 245
272 269 267 264 263 264 269 276 284 291 303 314 320 323 325 326 327 329 330 329 328 328 328 328 327 326 325 323 321 318 317 316 315 314 312 310 305 299 289 277 267 258 250 244 241 239 237 236 236 236 238 239 242 244 247 250 251 254 255 256 257 258 258 258 258 258 257 256 254 252 252 252 252 252 252 252 251 249 249 249 249 248 247 246 245
268 264 261 258 257 257 260 268 275 281 290 300 306 310 312 313 314 316 318 319 319 320 319 319 319 319 319 318 317 316 315 314 314 314 313 312 310 307 302 295 287 277 268 259 253 248 242 239 237 235 236 237 239 240 243 245 246 249 249 251 252 253 255 256 257 258 258 258 257 255 253 252 251 251 251 252 252 251 250 249 248 248 248 247 245
269 264 259 255 253 252 256 264 273 281 289 297 302 305 307 307 307 308 310 311 312 315 315 314 314 314 314 314 313 312 312 311 312 312 312 312 310 309 306 303 298 291 283 274 267 260 253 248 243 239 238 237 238 239 241 242 243 246 246 249 249 248 250 251 252 254 254 256 256 256 256 255 253 252 250 250 251 251 251 250 249 248 247 247 246
271 269 264 257 253 254 257 264 272 279 286 291 295 299 301 302 303 303 304 305 306 309 311 312 311 311 311 311 310 309 309 309 309 309 310 309 309 308 306 305 302 299 294 287 280 273 267 262 256 250 247 243 242 242 243 243 245 246 247 249 249 249 249 248 249 250 251 252 253 254 254 255 255 255 253 252 250 249 250 250 250 249 248 247 246
272 272 269 264 258 257 263 268 273 277 283 286 290 294 296 298 299 299 299 300 301 302 305 307 307 307 308 308 308 307 307 306 306 306 307 307 306 306 305 305 304 302 299 295 290 285 281 277 273 268 264 259 257 256 252 253 255 253 251 251 253 253 250 251 251 249 249 251 252 252 251 251 252 253 254 254 253 252 250 249 248 249 249 248 247
271 271 271 269 264 263 268 272 274 277 283 288 291 293 293 295 297 297 296 296 296 297 298 301 302 302 303 303 304 304 304 304 304 303 304 304 304 304 304 304 304 303 301 299 296 293 290 288 285 282 279 277 276 272 268 269 270 268 265 263 264 259 255 257 254 251 252 250 251 252 251 251 250 251 252 253 253 254 253 252 249 248 247 248 248
269 270 270 269 268 267 270 274 277 280 284 288 290 292 292 293 294 295 294 293 293 293 294 295 297 298 299 298 299 300 301 301 301 301 301 302 302 302 303 303 303 302 302 301 299 297 295 294 292 291 290 290 289 287 287 287 284 285 284 279 276 272 266 262 259 259 256 254 255 253 251 252 250 251 253 252 252 252 253 252 252 250 248 246 246
266 268 268 269 269 269 270 274 278 281 284 287 289 290 290 290 291 292 292 291 291 290 291 291 292 293 295 295 295 296 297 298 299 299 299 300 300 301 301 301 302 302 301 301 299 298 297 297 297 297 297 298 297 297 299 299 298 299 296 291 288 285 279 272 272 269 262 262 260 254 254 255 252 253 252 251 251 252 252 251 251 251 250 248 246
264 265 267 268 269 270 272 275 279 281 283 285 287 288 288 288 289 290 290 290 289 288 288 288 288 289 291 292 293 294 294 295 296 297 297 298 299 299 299 300 300 301 300 300 300 299 298 298 297 298 299 300 301 302 303 304 305 306 304 301 298 294 290 287 286 279 271 270 263 257 261 257 252 254 252 251 251 251 251 251 251 250 250 249 248
263 263 266 267 268 271 275 277 280 282 284 285 286 287 287 288 288 289 290 289 288 287 286 286 286 287 288 290 291 292 292 293 294 296 296 297 298 298 298 299 299 299 299 299 299 299 299 298 298 298 299 301 302 304 305 305 306 307 306 305 302 300 299 297 294 289 284 280 273 270 268 259 256 257 254 253 252 250 251 251 250 250 249 249 248
264 263 264 267 270 272 276 279 280 282 283 284 284 285 286 287 288 289 289 289 288 287 285 285 285 284 286 289 290 291 291 292 294 295 295 295 296 297 297 297 297 297 297 298 298 299 299 298 298 299 300 302 303 304 305 305 305 306 306 305 304 304 303 302 299 296 293 289 285 282 276 271 268 264 259 257 255 252 252 250 249 249 248 248 248
265 265 265 267 271 273 276 278 279 280 281 282 282 283 285 287 288 289 289 289 288 287 286 285 284 284 284 287 289 289 290 291 292 294 295 294 295 296 297 297 297 296 296 297 297 298 298 298 299 300 301 302 303 303 303 303 303 304 304 304 305 305 304 303 301 299 296 293 290 286 282 278 274 270 265 263 262 258 255 251 249 249 248 247 247
266 267 267 268 271 273 274 276 278 279 280 280 281 284 285 287 288 289 289 289 289 287 286 285 285 284 284 287 288 289 289 290 291 293 295 294 295 296 297 297 297 297 297 297 297 298 298 299 299 299 299 300 300 300 300 300 301 301 302 304 304 304 303 302 301 299 297 295 292 288 285 281 276 272 268 266 264 261 258 254 252 250 248 246 245
266 269 269 270 272 274 275 276 277 278 279 280 282 284 285 287 288 289 289 289 289 287 287 286 286 285 284 286 287 288 289 289 291 293 294 295 295 296 297 297 298 298 298 297 297 297 297 297 296 296 296 297 297 297 297 298 299 300 301 302 302 302 302 301 300 299 297 295 293 290 287 282 278 274 270 267 264 261 259 256 254 251 247 245 244
265 268 269 270 273 275 276 276 277 278 279 279 281 283 284 286 287 288 288 288 288 287 286 286 285 284 284 285 286 287 288 289 290 292 294 295 296 296 297 297 298 298 297 297 296 295 295 295 294 294 294 294 294 294 295 296 297 298 299 300 300 301 300 300 299 298 297 295 293 291 288 285 281 276 273 269 266 263 260 257 254 250 247 245 244
264 265 268 271 274 276 277 278 279 280 280 280 282 283 283 285 286 286 286 286 286 286 286 286 285 284 283 284 285 287 287 288 290 292 294 295 296 296 296 296 296 296 295 294 294 294 294 293 292 292 292 292 292 292 293 294 295 296 298 299 299 299 299 299 299 298 296 295 293 291 289 285 282 278 274 270 267 264 262 259 254 250 248 246 244
267 267 269 272 274 276 278 280 281 282 283 283 283 284 284 285 286 286 286 285 285 285 285 286 285 284 283 284 285 286 287 288 290 292 293 294 295 295 295 295 295 294 293 292 292 292 292 292 291 291 291 291 291 292 293 293 294 296 297 298 299 298 299 299 299 298 296 295 293 291 289 285 282 278 274 270 267 264 263 260 256 252 249 247 245
269 270 271 273 274 276 278 281 282 283 284 285 286 286 285 286 288 287 286 285 285 285 285 286 285 284 284 285 286 287 288 289 290 291 292 293 293 294 294 294 294 293 293 292 291 291 291 291 291 291 291 291 291 292 293 294 296 297 298 299 299 299 299 299 299 298 297 296 293 290 288 286 282 278 274 271 267 264 263 260 258 254 251 248 246
269 270 272 274 274 275 277 280 280 282 283 285 286 286 285 287 288 288 287 286 284 284 285 285 284 284 284 285 286 287 288 289 290 291 291 291 292 293 293 293 293 293 292 292 291 291 291 291 291 291 291 291 292 293 294 296 298 299 299 299 299 300 300 301 301 300 299 298 295 292 289 287 284 279 274 271 267 265 262 260 257 255 252 249 247
267 269 270 273 274 275 277 278 278 279 281 283 285 284 285 287 288 287 287 285 284 284 285 285 284 284 284 285 286 286 287 289 290 290 290 291 292 292 293 293 293 292 292 291 291 291 291 291 292 292 292 293 294 295 297 298 300 300 300 300 300 300 301 302 302 302 302 301 298 295 293 290 286 281 276 272 268 265 263 260 257 254 252 250 248
266 268 269 271 273 275 276 276 276 277 278 281 283 283 284 286 287 287 287 285 284 284 284 284 284 284 284 285 285 286 288 289 289 290 290 291 292 292 292 292 292 292 291 291 290 291 291 292 292 293 294 294 295 297 298 299 300 300 300 300 300 301 302 303 303 304 303 302 300 298 295 292 289 285 280 275 271 267 264 261 258 254 252 250 248
267 269 269 270 272 274 274 274 275 276 277 280 283 283 285 287 287 287 287 285 284 283 284 284 283 283 284 284 285 286 288 288 289 289 289 290 291 291 291 291 291 290 290 290 291 291 292 292 293 293 294 295 297 298 299 299 300 300 299 300 301 302 302 303 304 304 304 302 301 299 297 294 292 288 284 280 276 271 267 263 260 256 253 250 248
270 270 270 270 272 274 274 273 275 276 277 280 282 283 286 287 287 287 286 284 283 283 283 283 282 282 283 283 284 285 286 287 287 288 288 288 289 290 290 290 289 289 289 289 290 291 291 292 292 293 294 295 297 297 298 299 299 299 299 300 301 302 303 303 304 305 303 303 302 300 298 296 293 291 287 284 280 277 272 268 264 260 256 252 249
272 271 271 272 274 275 275 274 275 276 278 280 282 283 285 287 287 286 284 283 282 282 282 282 281 282 282 283 283 284 284 284 285 286 286 287 288 288 288 288 287 287 288 288 289 289 290 291 292 293 294 295 296 297 298 298 299 299 299 300 301 302 302 303 304 304 303 303 302 300 298 296 294 292 289 286 283 280 278 274 269 265 260 256 252
273 272 273 274 275 275 275 276 276 277 279 281 282 283 285 286 286 283 282 281 281 281 281 281 282 283 283 283 283 283 283 283 284 284 285 286 286 286 286 286 286 286 287 287 287 288 289 290 291 292 293 294 295 296 297 298 298 299 299 300 301 302 302 302 304 304 303 302 302 300 298 296 295 293 290 287 285 282 281 278 275 270 266 260 256
276 276 277 278 278 278 278 278 278 279 281 282 283 284 285 285 284 282 281 280 281 282 282 283 283 284 285 285 284 284 283 283 283 284 284 285 285 285 285 285 285 286 286 287 287 288 289 290 291 292 293 294 295 296 297 297 298 299 299 300 301 301 301 302 303 303 302 302 301 300 298 296 295 293 291 289 286 284 282 281 279 276 271 266 261
279 279 280 280 280 280 280 280 281 282 283 284 284 284 285 284 283 282 281 282 283 283 284 284 285 286 286 286 285 285 285 285 285 284 284 285 285 285 286 286 286 287 287 287 288 288 289 290 291 292 293 294 295 296 296 297 298 298 299 300 300 301 301 302 303 303 302 301 301 299 297 296 295 293 291 289 288 286 284 283 281 280 277 272 266
280 280 280 281 281 281 282 282 282 282 283 284 284 284 284 284 283 282 282 284 284 285 285 285 286 287 287 286 286 286 286 286 286 286 285 286 286 286 287 287 287 288 288 289 289 290 290 291 292 292 294 295 295 296 296 297 297 298 299 300 300 301 302 302 302 303 302 300 300 299 297 296 295 293 291 290 288 287 285 284 283 282 280 276 271
280 280 280 280 281 282 282 282 282 282 283 284 284 283 283 284 283 283 283 284 285 285 285 286 287 287 287 288 288 288 288 288 287 287 287 287 287 288 288 288 289 289 290 290 291 291 291 292 293 293 294 295 296 296 296 297 297 298 299 300 301 301 302 302 302 302 302 301 298 297 296 296 294 293 291 289 288 287 286 286 285 283 281 279 275
280 280 280 280 280 281 281 281 281 282 283 283 282 282 282 282 282 282 282 283 284 285 286 287 287 288 288 289 289 290 290 289 288 288 288 288 288 289 289 290 290 291 291 292 292 292 292 293 294 294 295 295 296 296 297 297 298 298 299 299 300 300 301 301 301 302 302 301 298 295 294 294 294 292 290 289 288 288 287 287 286 285 283 281 278
279 279 280 279 280 280 279 279 280 281 281 280 280 281 281 280 280 280 281 282 283 284 285 286 287 288 289 289 289 289 289 289 288 288 288 289 289 290 290 291 291 292 292 293 293 293 294 294 295 295 296 296 297 297 297 297 297 298 298 298 299 299 299 300 300 301 301 300 298 295 293 293 293 292 290 288 288 288 288 287 286 285 283 281 279
279 280 279 279 279 279 279 279 280 280 280 280 281 281 282 281 281 281 281 282 283 284 285 285 286 287 288 289 289 290 290 290 289 289 289 290 290 291 291 292 292 293 293 293 294 294 295 296 296 296 296 296 296 297 297 297 297 297 297 297 297 298 298 298 299 300 300 299 297 295 293 292 293 292 289 288 288 288 288 287 286 285 283 282 280
Height
10803 10804 10806 10806 10805 10805 10806 10807 10808 10810 10811 10812 10813 10815 10816 10818 10820 10821 10822 10824 10825 10827 10828 10830 10833 10834 10836 10837 10838 10839 10840 10842 10843 10844 10844 10844 10845 10845 10845 10846 10847 10846 10846 10849 10853 10856 10858 10860 10862 10864 10865 10867 10869 10872 10874 10876 10877 10878 10879 10880 10882 10884 10885 10887 10888 10890 10892 10894 10896 10897 10898 10898 10898 10899 10900 10900 10900 10901 10900 10900 10901 10902 10904 10905 10906
10803 10804 10805 10805 10805 10805 10805 10807 10808 10809 10810 10811 10812 10813 10814 10815 10816 10818 10819 10820 10821 10823 10824 10826 10828 10829 10831 10833 10834 10835 10836 10838 10839 10840 10841 10842 10842 10842 10842 10843 10844 10845 10844 10845 10847 10851 10854 10856 10858 10860 10862 10864 10866 10869 10871 10873 10874 10875 10876 10878 10879 10880 10882 10884 10885 10887 10889 10891 10893 10894 10895 10895 10896 10896 10897 10898 10898 10899 10899 10899 10899 10900 10901 10902 10903
10803 10803 10804 10804 10805 10805 10805 10806 10807 10808 10808 10809 10810 10811 10812 10813 10814 10815 10816 10817 10818 10819 10820 10822 10823 10825 10827 10828 10830 10831 10832 10834 10835 10837 10838 10838 10839 10839 10839 10840 10841 10842 10843 10843 10844 10847 10850 10852 10854 10856 10858 10860 10863 10865 10867 10869 10871 10872 10873 10874 10876 10877 10878 10880 10882 10884 10886 10888 10890 10891 10892 10892 10893 10893 10893 10894 10895 10896 10897 10897 10897 10898 10899 10900 10901
10803 10803 10803 10804 10804 10804 10804 10805 10806 10807 10807 10808 10809 10810 10811 10812 10812 10813 10813 10814 10815 10816 10817 10818 10819 10821 10822 10824 10825 10827 10828 10829 10831 10832 10833 10834 10835 10836 10836 10837 10838 10839 10840 10841 10842 10843 10845 10848 10850 10852 10854 10856 10859 10861 10863 10865 10867 10868 10870 10871 10872 10874 10875 10876 10878 10880 10882 10885 10886 10888 10889 10890 10890 10890 10891 10891 10892 10893 10894 10895 10895 10896 10897 10897 10898
10804 10803 10803 10803 10804 10804 10804 10805 10805 10806 10806 10806 10807 10808 10809 10810 10811 10811 10812 10812 10813 10813 10814 10815 10816 10818 10819 10820 10821 10823 10824 10825 10826 10827 10829 10830 10831 10832 10833 10833 10834 10835 10837 10838 10839 10840 10841 10843 10845 10847 10849 10852 10854 10856 10858 10860 10862 10864 10865 10866 10868 10869 10871 10872 10874 10876 10878 10881 10882 10884 10885 10887 10888 10888 10889 10888 10888 10889 10890 10891 10892 10893 10895 10895 10896
10804 10804 10804 10804 10804 10804 10804 10805 10805 10805 10805 10805 10805 10806 10807 10808 10809 10810 10810 10811 10811 10812 10812 10813 10813 10814 10816 10817 10818 10819 10820 10821 10822 10823 10824 10825 10827 10828 10829 10830 10831 10832 10833 10834 10836 10837 10838 10839 10840 10842 10844 10846 10849 10851 10853 10855 10857 10859 10861 10862 10862 10864 10866 10867 10869 10871 10874 10876 10878 10879 10881 10882 10884 10885 10886 10886 10886 10886 10887 10888 10889 10890 10892 10893 10893
10804 10805 10805 10805 10805 10805 10805 10805 10805 10805 10805 10804 10804 10805 10806 10806 10807 10808 10808 10809 10809 10810 10810 10811 10811 10812 10813 10814 10815 10816 10817 10818 10818 10819 10820 10821 10822 10823 10825 10826 10827 10829 10830 10831 10832 10833 10835 10836 10837 10838 10840 10842 10844 10845 10848 10850 10852 10854 10855 10857 10857 10859 10860 10862 10864 10866 10868 10871 10873 10874 10876 10878 10879 10881 10882 10883 10883 10883 10884 10885 10886 10886 10888 10889 10890
10805 10805 10805 10805 10805 10805 10805 10805 10805 10805 10805 10804 10804 10805 10805 10805 10806 10806 10807 10807 10808 10808 10809 10809 10810 10811 10811 10812 10813 10814 10814 10815 10816 10817 10817 10818 10819 10820 10821 10822 10823 10825 10826 10827 10828 10829 10831 10832 10834 10835 10837 10838 10840 10841 10843 10845 10847 10849 10850 10852 10853 10854 10855 10857 10859 10861 10863 10865 10867 10869 10871 10872 10874 10876 10878 10879 10879 10879 10881 10882 10883 10883 10884 10885 10887
10805 10805 10805 10805 10805 10805 10806 10806 10805 10805 10805 10805 10805 10805 10805 10805 10805 10806 10806 10806 10807 10807 10808 10808 10809 10809 10810 10810 10811 10812 10813 10813 10814 10815 10815 10816 10816 10817 10818 10819 10820 10821 10822 10824 10825 10826 10827 10828 10830 10832 10833 10834 10836 10837 10839 10840 10842 10844 10845 10847 10848 10849 10850 10852 10854 10856 10857 10859 10861 10863 10865 10867 10869 10871 10872 10873 10875 10876 10877 10879 10880 10880 10880 10881 10882
10804 10804 10804 10805 10805 10805 10805 10805 10805 10805 10804 10805 10805 10805 10805 10805 10805 10805 10806 10806 10806 10806 10807 10807 10808 10808 10809 10809 10810 10810 10811 10812 10812 10813 10813 10814 10814 10815 10816 10816 10817 10818 10819 10820 10821 10822 10823 10825 10826 10827 10829 10830 10831 10833 10834 10836 10838 10839 10841 10842 10844 10845 10846 10848 10850 10851 10852 10854 10855 10857 10859 10861 10863 10865 10866 10867 10870 10872 10873 10874 10876 10876 10877 10877 10878
10804 10804 10804 10804 10804 10804 10804 10805 10805 10804 10804 10804 10805 10805 10805 10805 10805 10805 10805 10805 10806 10806 10806 10806 10807 10807 10807 10808 10808 10809 10809 10810 10811 10811 10812 10812 10812 10813 10813 10814 10815 10815 10816 10817 10818 10819 10820 10821 10822 10823 10824 10826 10827 10828 10829 10831 10833 10835 10836 10837 10839 10840 10842 10843 10845 10846 10847 10848 10849 10851 10853 10855 10857 10859 10860 10861 10864 10867 10868 10868 10870 10872 10873 10873 10874
10803 10803 10803 10803 10803 10803 10803 10803 10803 10803 10803 10804 10804 10805 10805 10805 10805 10805 10805 10805 10805 10805 10805 10806 10806 10806 10807 10807 10807 10808 10808 10809 10809 10809 10810 10810 10810 10811 10811 10812 10812 10813 10813 10814 10815 10816 10817 10817 10818 10819 10820 10821 10822 10823 10824 10826 10828 10830 10832 10833 10834 10835 10837 10838 10840 10841 10842 10843 10844 10846 10847 10849 10851 10853 10854 10856 10858 10860 10861 10863 10865 10867 10868 10869 10870
10803 10803 10802 10802 10802 10802 10802 10802 10802 10802 10802 10803 10803 10804 10804 10804 10804 10804 10804 10804 10804 10804 10805 10805 10805 10806 10806 10806 10806 10806 10807 10807 10807 10808 10808 10808 10809 10809 10809 10809 10810 10810 10810 10811 10812 10813 10814 10814 10815 10816 10816 10817 10818 10819 10820 10821 10822 10824 10826 10828 10829 10831 10832 10833 10835 10836 10837 10838 10839 10840 10842 10843 10845 10847 10848 10850 10852 10853 10855 10857 10859 10861 10862 10864 10865
10803 10803 10802 10802 10802 10802 10802 10801 10801 10801 10801 10802 10802 10802 10803 10803 10803 10803 10803 10803 10803 10803 10804 10804 10804 10805 10805 10805 10805 10805 10806 10806 10806 10806 10806 10807 10807 10807 10807 10807 10808 10808 10808 10808 10809 10809 10810 10811 10812 10812 10813 10813 10814 10815 10815 10817 10818 10819 10821 10822 10824 10826 10827 10828 10829 10830 10832 10833 10833 10834 10835 10837 10839 10841 10842 10844 10846 10847 10849 10851 10853 10855 10857 10859 10860
10803 10803 10802 10802 10802 10801 10801 10801 10801 10801 10801 10801 10801 10801 10801 10801 10801 10801 10802 10802 10802 10802 10803 10803 10803 10804 10804 10804 10804 10804 10805 10805 10805 10805 10805 10805 10805 10805 10805 10806 10806 10806 10806 10806 10806 10806 10806 10807 10807 10808 10809 10809 10810 10811 10811 10812 10813 10815 10816 10817 10818 10820 10821 10823 10824 10825 10826 10826 10827 10828 10829 10830 10832 10833 10835 10836 10838 10841 10843 10844 10847 10849 10851 10853 10854
10803 10802 10802 10802 10801 10801 10801 10801 10801 10801 10801 10801 10800 10800 10800 10800 10800 10800 10800 10800 10800 10801 10801 10801 10802 10802 10803 10803 10803 10803 10803 10803 10804 10804 10804 10804 10804 10804 10804 10804 10804 10804 10804 10804 10803 10803 10803 10803 10803 10804 10805 10805 10806 10806 10807 10808 10809 10810 10811 10812 10813 10814 10815 10816 10817 10818 10819 10819 10820 10821 10822 10823 10824 10826 10827 10828 10831 10834 10836 10838 10840 10842 10845 10847 10849
10802 10802 10801 10801 10801 10800 10800 10800 10800 10800 10800 10800 10800 10799 10799 10799 10799 10799 10799 10799 10799 10799 10799 10799 10800 10800 10800 10801 10801 10801 10801 10802 10802 10802 10802 10802 10802 10802 10802 10802 10802 10801 10801 10801 10801 10800 10800 10800 10800 10800 10800 10801 10801 10802 10803 10803 10804 10805 10806 10806 10807 10808 10809 10809 10810 10811 10812 10812 10813 10814 10815 10816 10817 10818 10819 10820 10823 10826 10828 10830 10832 10835 10837 10840 10843
10801 10800 10800 10800 10800 10799 10799 10799 10799 10799 10799 10798 10798 10798 10798 10797 10797 10797 10797 10797 10797 10797 10797 10797 10797 10798 10798 10798 10798 10798 10799 10799 10799 10799 10799 10800 10800 10800 10799 10799 10799 10799 10798 10798 10798 10797 10797 10797 10797 10797 10797 10797 10797 10798 10798 10799 10800 10800 10801 10801 10802 10802 10803 10803 10803 10804 10805 10805 10806 10807 10807 10808 10809 10810 10811 10813 10816 10819 10821 10822 10824 10827 10830 10832 10835
10799 10799 10799 10798 10798 10798 10797 10797 10797 10797 10797 10796 10796 10796 10796 10796 10795 10795 10795 10795 10795 10795 10795 10795 10795 10795 10795 10795 10795 10795 10796 10796 10796 10796 10796 10796 10796 10796 10796 10796 10795 10795 10795 10794 10794 10794 10793 10793 10793 10793 10793 10794 10794 10794 10794 10795 10795 10796 10796 10796 10797 10797 10797 10797 10797 10797 10798 10799 10799 10800 10800 10801 10801 10802 10803 10805 10807 10811 10813 10814 10816 10818 10821 10824 10827
10798 10797 10797 10797 10796 10796 10795 10795 10795 10795 10794 10794 10794 10794 10794 10794 10793 10793 10793 10793 10793 10793 10793 10793 10793 10793 10793 10792 10792 10792 10792 10792 10792 10792 10792 10792 10792 10792 10792 10791 10791 10791 10791 10790 10790 10790 10790 10790 10790 10790 10790 10790 10790 10791 10791 10791 10792 10792 10792 10792 10792 10792 10791 10791 10791 10791 10791 10792 10792 10793 10794 10794 10794 10794 10795 10797 10798 10802 10804 10805 10807 10810 10812 10815 10817
10796 10795 10795 10795 10794 10794 10794 10793 10793 10793 10792 10792 10792 10792 10791 10791 10791 10791 10791 10790 10790 10790 10790 10790 10790 10790 10790 10789 10789 10789 10789 10788 10788 10788 10788 10788 10788 10788 10787 10787 10786 10786 10786 10786 10786 10786 10786 10786 10786 10786 10786 10786 10787 10787 10787 10788 10788 10788 10789 10789 10788 10788 10787 10786 10786 10785 10785 10785 10785 10785 10786 10787 10787 10788 10789 10790 10790 10792 10795 10797 10798 10801 10803 10805 10808
10793 10793 10793 10793 10792 10792 10792 10791 10791 10791 10791 10790 10790 10789 10789 10789 10789 10788 10788 10788 10787 10787 10787 10787 10787 10787 10787 10786 10786 10786 10785 10785 10784 10784 10784 10784 10783 10783 10783 10782 10782 10781 10781 10781 10781 10781 10781 10781 10781 10781 10782 10782 10783 10783 10784 10784 10785 10785 10785 10784 10784 10784 10783 10782 10781 10781 10780 10779 10779 10779 10779 10779 10780 10780 10781 10782 10783 10784 10786 10788 10789 10791 10794 10796 10798
10791 10791 10790 10790 10790 10790 10789 10789 10789 10789 10788 10788 10788 10787 10787 10786 10786 10786 10785 10785 10784 10784 10784 10784 10784 10783 10783 10783 10782 10782 10781 10781 10780 10780 10780 10779 10779 10778 10778 10777 10777 10777 10776 10776 10776 10775 10775 10776 10776 10776 10777 10777 10778 10778 10779 10779 10780 10780 10780 10780 10780 10779 10778 10778 10777 10777 10776 10775 10774 10773 10773 10773 10773 10773 10774 10775 10775 10776 10777 10779 10781 10782 10784 10787 10789
10788 10788 10788 10787 10787 10787 10787 10787 10786 10786 10786 10786 10785 10785 10785 10784 10784 10783 10783 10782 10781 10781 10780 10780 10780 10780 10779 10779 10779 10778 10777 10777 10776 10776 10775 10775 10774 10773 10773 10772 10772 10771 10771 10771 10770 10770 10770 10770 10770 10770 10771 10771 10772 10772 10773 10773 10774 10774 10774 10774 10775 10774 10774 10774 10773 10773 10772 10771 10771 10770 10769 10768 10767 10767 10767 10767 10768 10768 10769 10770 10772 10773 10775 10777 10779
10786 10786 10785 10785 10784 10784 10784 10784 10783 10783 10783 10783 10782 10782 10782 10781 10781 10781 10780 10779 10779 10778 10777 10777 10776 10776 10776 10775 10775 10774 10773 10773 10772 10771 10770 10770 10769 10768 10768 10767 10766 10765 10765 10765 10764 10764 10764 10764 10764 10764 10764 10765 10765 10765 10766 10766 10767 10767 10768 10768 10768 10768 10768 10768 10768 10768 10767 10767 10766 10766 10765 10764 10763 10762 10762 10761 10761 10761 10761 10762 10763 10764 10765 10767 10769
10784 10783 10783 10783 10782 10782 10781 10781 10780 10780 10780 10779 10779 10779 10778 10778 10778 10778 10777 10776 10775 10775 10774 10773 10773 10772 10772 10771 10771 10770 10769 10768 10768 10767 10766 10765 10764 10763 10763 10762 10761 10760 10759 10759 10758 10758 10758 10758 10758 10758 10758 10758 10758 10758 10759 10759 10759 10759 10759 10760 10760 10760 10761 10761 10761 10761 10760 10760 10760 10760 10759 10759 10758 10757 10757 10756 10755 10754 10754 10753 10753 10754 10756 10757 10758
10781 10781 10780 10780 10780 10779 10779 10778 10777 10777 10777 10776 10775 10775 10775 10774 10774 10774 10773 10773 10772 10771 10770 10770 10769 10768 10768 10767 10767 10766 10765 10764 10763 10762 10762 10761 10760 10759 10758 10757 10756 10755 10754 10753 10753 10753 10752 10752 10752 10751 10751 10751 10751 10751 10751 10751 10751 10751 10751 10751 10752 10751 10752 10752 10752 10752 10751 10752 10751 10751 10751 10751 10750 10749 10749 10748 10748 10748 10747 10746 10745 10744 10745 10746 10748
10778 10778 10777 10777 10777 10776 10776 10775 10774 10774 10773 10773 10772 10771 10771 10770 10770 10770 10769 10769 10768 10767 10766 10765 10765 10764 10763 10763 10762 10762 10761 10760 10759 10758 10757 10756 10755 10754 10753 10752 10751 10750 10749 10748 10747 10747 10746 10746 10746 10745 10745 10745 10744 10744 10744 10744 10743 10743 10742 10743 10743 10743 10743 10743 10742 10742 10742 10742 10741 10742 10742 10741 10741 10740 10740 10740 10739 10739 10739 10738 10737 10736 10735 10735 10736
10775 10774 10774 10774 10774 10773 10772 10772 10771 10770 10770 10769 10768 10767 10766 10766 10765 10765 10765 10764 10763 10762 10762 10761 10760 10759 10759 10758 10757 10757 10756 10755 10754 10753 10752 10751 10750 10749 10748 10747 10746 10745 10743 10742 10741 10741 10740 10740 10739 10739 10738 10738 10737 10737 10737 10736 10736 10735 10734 10734 10734 10734 10734 10734 10733 10733 10733 10733 10732 10731 10730 10730 10731 10731 10730 10730 10730 10729 10729 10729 10728 10727 10726 10726 10725
10771 10770 10770 10770 10770 10769 10769 10768 10767 10766 10766 10765 10764 10763 10762 10761 10761 10760 10760 10759 10758 10758 10757 10756 10755 10754 10754 10753 10752 10751 10751 10749 10749 10748 10747 10746 10746 10745 10744 10743 10741 10740 10738 10737 10736 10735 10734 10733 10733 10731 10731 10730 10730 10729 10728 10728 10728 10728 10727 10726 10726 10726 10726 10725 10724 10723 10723 10723 10722 10721 10720 10720 10720 10720 10720 10719 10719 10719 10719 10718 10718 10718 10717 10717 10716
10766 10766 10767 10766 10765 10765 10765 10764 10763 10762 10762 10761 10759 10758 10757 10757 10756 10756 10755 10754 10754 10753 10752 10751 10750 10749 10749 10748 10747 10746 10745 10744 10743 10742 10741 10741 10740 10739 10738 10737 10736 10734 10733 10732 10730 10729 10728 10727 10726 10724 10723 10723 10722 10722 10721 10720 10720 10720 10719 10718 10717 10718 10717 10716 10714 10713 10713 10712 10711 10710 10709 10708 10708 10708 10708 10707 10707 10707 10707 10707 10707 10707 10706 10706 10706
10762 10762 10762 10762 10761 10761 10761 10760 10758 10758 10757 10756 10755 10754 10753 10752 10751 10751 10750 10749 10749 10748 10747 10746 10745 10744 10743 10742 10741 10740 10739 10738 10737 10736 10735 10735 10734 10733 10732 10731 10730 10729 10727 10725 10724 10722 10721 10720 10719 10718 10716 10716 10715 10715 10714 10713 10712 10711 10710 10709 10709 10709 10708 10706 10705 10703 10702 10701 10700 10699 10697 10696 10695 10695 10694 10694 10694 10693 10694 10694 10695 10694 10694 10694 10694
10758 10758 10758 10757 10757 10756 10756 10755 10754 10753 10752 10751 10750 10749 10748 10747 10747 10745 10745 10744 10744 10743 10741 10740 10740 10738 10737 10736 10735 10734 10733 10732 10731 10730 10729 10728 10727 10726 10725 10724 10723 10722 10720 10719 10717 10716 10715 10714 10713 10712 10710 10709 10708 10708 10707 10705 10704 10703 10702 10701 10700 10700 10699 10697 10695 10694 10692 10690 10689 10687 10685 10683 10682 10681 10681 10680 10680 10680 10680 10680 10680 10680 10680 10681 10681
10755 10754 10753 10752 10752 10752 10751 10750 10749 10748 10748 10746 10745 10745 10744 10743 10742 10740 10740 10739 10738 10737 10736 10735 10734 10733 10731 10730 10729 10728 10727 10725 10724 10723 10722 10721 10720 10719 10718 10717 10716 10714 10713 10712 10710 10709 10708 10708 10707 10706 10704 10703 10702 10701 10700 10698 10696 10695 10693 10693 10692 10690 10689 10687 10685 10684 10682 10680 10678 10676 10673 10671 10670 10668 10667 10667 10667 10666 10666 10665 10666 10666 10667 10667 10668
10751 10750 10749 10748 10748 10747 10747 10746 10745 10744 10743 10741 10741 10740 10739 10738 10737 10736 10735 10734 10733 10732 10731 10730 10728 10727 10725 10724 10723 10722 10720 10719 10718 10717 10716 10715 10713 10712 10711 10709 10708 10707 10706 10705 10704 10703 10702 10701 10700 10699 10698 10696 10695 10693 10692 10691 10689 10687 10685 10683 10682 10681 10679 10677 10675 10674 10672 10670 10667 10664 10662 10659 10657 10656 10654 10653 10653 10653 10652 10651 10652 10653 10654 10655 10656
10746 10746 10745 10744 10743 10743 10742 10741 10740 10739 10739 10737 10736 10736 10734 10734 10732 10731 10731 10729 10728 10727 10725 10724 10723 10721 10719 10718 10717 10715 10714 10713 10712 10711 10709 10708 10707 10705 10704 10703 10701 10700 10699 10698 10696 10695 10694 10694 10693 10692 10690 10689 10687 10686 10684 10683 10681 10678 10676 10674 10671 10670 10668 10667 10665 10663 10661 10658 10655 10652 10649 10646 10644 10642 10641 10640 10639 10639 10638 10638 10638 10639 10640 10642 10643
10741 10741 10740 10739 10739 10738 10737 10737 10736 10734 10734 10732 10731 10731 10729 10728 10727 10725 10725 10724 10722 10721 10720 10719 10717 10715 10713 10711 10710 10709 10707 10706 10705 10704 10703 10702 10700 10699 10697 10696 10694 10693 10692 10690 10689 10688 10687 10685 10685 10684 10682 10680 10678 10677 10675 10673 10671 10668 10666 10663 10660 10658 10656 10655 10654 10651 10649 10646 10642 10639 10636 10633 10631 10629 10627 10626 10626 10625 10624 10624 10624 10625 10627 10629 10630
10736 10737 10736 10735 10734 10733 10733 10732 10731 10730 10729 10727 10726 10725 10724 10723 10721 10720 10719 10718 10717 10715 10714 10713 10711 10709 10707 10705 10704 10702 10701 10700 10699 10698 10696 10695 10693 10692 10690 10689 10687 10685 10684 10682 10681 10679 10678 10677 10675 10673 10672 10671 10668 10666 10664 10662 10660 10657 10655 10652 10649 10647 10645 10643 10640 10638 10636 10632 10627 10624 10622 10619 10617 10615 10613 10612 10612 10611 10611 10610 10610 10611 10612 10615 10617
10732 10732 10731 10730 10729 10728 10728 10728 10726 10725 10724 10723 10721 10720 10719 10717 10715 10714 10714 10712 10711 10709 10708 10707 10705 10703 10701 10699 10698 10696 10695 10694 10692 10691 10689 10688 10686 10684 10683 10681 10679 10678 10676 10674 10672 10670 10669 10667 10665 10662 10661 10659 10657 10655 10653 10650 10647 10645 10643 10641 10637 10635 10633 10630 10627 10624 10621 10617 10612 10610 10607 10605 10603 10600 10599 10598 10598 10597 10597 10597 10597 10597 10598 10600 10603
10726 10727 10726 10725 10724 10722 10723 10723 10721 10720 10718 10717 10716 10715 10713 10712 10710 10708 10708 10706 10704 10703 10702 10701 10699 10696 10695 10694 10692 10690 10688 10687 10685 10684 10682 10680 10678 10677 10675 10673 10671 10669 10667 10664 10662 10661 10659 10658 10655 10652 10649 10647 10645 10644 10641 10639 10636 10633 10631 10629 10626 10623 10620 10617 10615 10612 10608 10603 10600 10597 10594 10591 10589 10587 10585 10584 10584 10584 10583 10583 10583 10584 10584 10585 10587
10721 10721 10720 10719 10719 10717 10717 10717 10715 10714 10713 10712 10711 10710 10708 10706 10704 10703 10702 10700 10698 10697 10696 10694 10692 10690 10688 10687 10685 10683 10682 10680 10678 10676 10674 10672 10671 10669 10667 10665 10662 10660 10658 10655 10652 10651 10649 10647 10644 10642 10639 10635 10633 10631 10630 10628 10625 10622 10619 10616 10613 10610 10608 10606 10603 10599 10594 10590 10588 10585 10580 10578 10576 10573 10572 10571 10570 10569 10570 10570 10570 10570 10571 10572 10573
10715 10714 10714 10714 10713 10712 10711 10710 10709 10708 10706 10705 10704 10703 10702 10700 10699 10698 10696 10694 10692 10691 10690 10688 10685 10684 10682 10680 10678 10676 10675 10672 10670 10668 10666 10665 10663 10661 10659 10656 10654 10651 10649 10646 10643 10640 10638 10636 10634 10631 10628 10625 10622 10619 10617 10616 10613 10610 10608 10605 10601 10597 10593 10592 10592 10588 10581 10578 10575 10572 10568 10565 10564 10561 10559 10559 10557 10556 10556 10556 10557 10557 10557 10559 10559
10709 10708 10708 10707 10707 10706 10705 10704 10703 10701 10700 10698 10697 10697 10696 10695 10694 10692 10690 10688 10686 10685 10683 10681 10678 10677 10675 10673 10671 10670 10667 10665 10663 10661 10659 10657 10655 10653 10650 10648 10645 10642 10640 10637 10633 10631 10628 10626 10623 10620 10618 10615 10612 10609 10606 10603 10600 10597 10595 10593 10590 10587 10582 10578 10578 10574 10567 10566 10563 10559 10557 10553 10551 10550 10548 10547 10545 10544 10543 10543 10543 10543 10544 10545 10547
10702 10702 10701 10701 10700 10699 10699 10698 10696 10695 10693 10691 10690 10689 10689 10688 10687 10686 10683 10681 10679 10678 10676 10674 10672 10670 10668 10666 10664 10662 10660 10658 10655 10653 10651 10649 10647 10644 10642 10639 10637 10634 10631 10628 10624 10621 10618 10616 10613 10610 10607 10605 10601 10597 10594 10591 10588 10584 10581 10580 10576 10574 10571 10567 10568 10563 10554 10553 10551 10546 10544 10542 10539 10538 10537 10536 10534 10533 10532 10530 10530 10530 10530 10531 10533
10695 10695 10695 10694 10694 10693 10692 10691 10689 10687 10685 10683 10682 10681 10681 10680 10679 10678 10675 10673 10672 10670 10668 10666 10664 10663 10661 10659 10657 10654 10652 10650 10647 10645 10643 10641 10638 10635 10633 10630 10627 10625 10622 10619 10615 10611 10609 10606 10602 10599 10596 10594 10591 10586 10581 10577 10574 10570 10567 10566 10563 10560 10558 10554 10555 10554 10544 10540 10539 10535 10531 10529 10529 10528 10525 10523 10522 10521 10520 10518 10517 10517 10517 10518 10519
10687 10688 10688 10687 10686 10686 10684 10683 10681 10679 10676 10674 10672 10672 10672 10671 10670 10669 10667 10665 10663 10662 10660 10658 10656 10654 10653 10650 10648 10646 10644 10641 10639 10637 10634 10632 10629 10626 10623 10621 10618 10615 10612 10609 10606 10602 10598 10595 10591 10587 10584 10582 10580 10575 10569 10564 10560 10556 10552 10550 10547 10545 10544 10540 10539 10542 10537 10528 10525 10523 10520 10517 10516 10516 10515 10513 10510 10508 10507 10506 10505 10504 10504 10504 10504
10680 10680 10680 10679 10678 10677 10676 10674 10672 10670 10667 10665 10664 10662 10663 10663 10661 10660 10658 10656 10654 10653 10651 10649 10647 10645 10643 10641 10639 10637 10635 10632 10630 10627 10625 10622 10619 10616 10613 10610 10607 10604 10602 10598 10595 10591 10587 10583 10579 10575 10573 10569 10566 10563 10557 10552 10547 10542 10538 10535 10531 10527 10526 10524 10522 10523 10526 10522 10514 10508 10507 10506 10505 10504 10501 10500 10499 10496 10494 10492 10492 10492 10491 10490 10489
10671 10672 10671 10671 10670 10669 10668 10666 10663 10661 10659 10657 10655 10654 10654 10653 10652 10650 10648 10647 10645 10643 10641 10640 10638 10635 10633 10631 10629 10627 10625 10623 10620 10617 10615 10612 10609 10607 10603 10600 10597 10594 10591 10588 10584 10580 10575 10571 10567 10563 10560 10556 10553 10549 10544 10539 10534 10529 10523 10519 10516 10512 10508 10506 10505 10504 10507 10511 10509 10500 10494 10493 10494 10493 10489 10486 10484 10483 10482 10480 10478 10477 10477 10476 10474
10663 10663 10663 10663 10662 10661 10660 10658 10655 10653 10651 10649 10646 10644 10644 10644 10642 10640 10639 10637 10636 10633 10631 10629 10628 10625 10623 10622 10619 10617 10615 10613 10610 10607 10604 10602 10599 10596 10593 10589 10586 10582 10579 10576 10572 10568 10563 10559 10555 10551 10547 10544 10539 10536 10531 10526 10521 10516 10510 10505 10501 10497 10494 10490 10487 10486 10486 10490 10495 10493 10487 10483 10482 10480 10476 10474 10471 10468 10469 10468 10465 10462 10461 10460 10459
10656 10656 10656 10655 10655 10654 10652 10650 10648 10646 10643 10640 10637 10635 10635 10634 10632 10631 10629 10627 10626 10624 10621 10619 10617 10615 10613 10611 10609 10607 10605 10602 10599 10596 10593 10590 10587 10585 10581 10578 10574 10571 10567 10564 10560 10555 10551 10546 10542 10538 10534 10530 10526 10522 10518 10512 10507 10502 10497 10493 10488 10483 10480 10476 10471 10469 10469 10469 10473 10476 10474 10472 10474 10470 10463 10461 10460 10455 10453 10453 10451 10449 10445 10443 10443
10649 10649 10648 10648 10647 10646 10644 10642 10640 10638 10635 10632 10628 10626 10625 10623 10621 10621 10620 10618 10616 10614 10612 10609 10606 10604 10602 10600 10598 10595 10593 10590 10587 10585 10581 10579 10576 10573 10570 10566 10562 10559 10555 10551 10547 10543 10538 10534 10529 10526 10521 10517 10514 10509 10505 10500 10495 10490 10484 10479 10475 10470 10466 10463 10458 10454 10452 10451 10452 10456 10456 10454 10460 10460 10450 10449 10450 10445 10440 10438 10434 10431 10430 10428 10427